Location: Gro�bocka
(50.8204°N, 11.9702°E)
Time: 04:20:24
(UTC+00:00)

X-37B - Pass Details

Date: 28 June 2021
Orbit: 383 x 392 km, 45.0° (Epoch: 01 July)

Event Time Altitude Azimuth Distance (km) Brightness Sun altitude
Rises 22:04:30 0° 264° (W) 2,258 4.6 -14.3°
Reaches altitude 10° 22:06:55 10° 246° (WSW) 1,402 3.3 -14.4°
Enters shadow 22:08:22 17° 221° (SW) 1,052 2.4 -14.5°
